TimeEST,TemperatureF,Dew PointF,Humidity,Sea Level PressureIn,VisibilityMPH,Wind Direction,Wind SpeedMPH,Gust SpeedMPH,PrecipitationIn,Events,Conditions,WindDirDegrees,DateUTC
12:53 AM,39.9,35.1,83,29.43,7.0,SE,15.0,24.2,0.01,Rain,Light Rain,130,2012-12-21 05:53:00
1:53 AM,41.0,36.0,82,29.36,9.0,SE,9.2,36.8,0.02,Rain,Light Rain,130,2012-12-21 06:53:00
2:02 AM,41.0,35.6,81,29.35,9.0,Variable,5.8,21.9,0.00,Rain,Light Rain,0,2012-12-21 07:02:00
2:48 AM,41.0,37.4,87,29.36,3.0,WSW,4.6,-,0.06,Rain,Heavy Rain,250,2012-12-21 07:48:00
2:53 AM,39.9,37.0,89,29.37,2.5,WSW,4.6,-,0.09,Rain,Heavy Rain,240,2012-12-21 07:53:00
3:04 AM,39.2,37.4,93,29.34,3.0,WSW,4.6,-,0.04,Rain,Heavy Rain,240,2012-12-21 08:04:00
3:53 AM,37.0,36.0,96,29.34,4.0,Calm,Calm,-,0.18,Rain,Heavy Rain,0,2012-12-21 08:53:00
4:13 AM,37.4,35.6,93,29.30,5.0,Calm,Calm,-,0.07,Rain,Rain,0,2012-12-21 09:13:00
4:31 AM,37.4,33.8,87,29.30,6.0,WSW,4.6,-,0.11,Rain,Light Rain,250,2012-12-21 09:31:00
4:39 AM,37.4,35.6,93,29.30,7.0,West,5.8,-,0.12,Rain,Rain,260,2012-12-21 09:39:00
4:53 AM,36.0,34.0,93,29.32,6.0,WSW,6.9,-,0.15,Rain,Rain,250,2012-12-21 09:53:00
5:02 AM,35.6,33.8,93,29.28,6.0,SW,6.9,-,0.02,Rain,Rain,230,2012-12-21 10:02:00
5:53 AM,34.0,32.0,92,29.29,4.0,SSW,3.5,-,0.12,Snow,Light Snow,210,2012-12-21 10:53:00
6:25 AM,33.8,32.0,93,29.26,2.5,Calm,Calm,-,0.05,Snow,Light Snow,0,2012-12-21 11:25:00
6:34 AM,33.8,30.2,87,29.27,5.0,WSW,3.5,-,0.06,Rain,Light Rain,250,2012-12-21 11:34:00
6:41 AM,33.8,32.0,93,29.26,10.0,WSW,3.5,-,0.06,Rain,Light Freezing Rain,250,2012-12-21 11:41:00
6:53 AM,33.1,30.9,92,29.29,9.0,Calm,Calm,-,0.06,Rain,Light Freezing Rain,0,2012-12-21 11:53:00
7:09 AM,33.8,32.0,93,29.28,9.0,Calm,Calm,-,0.00,,Overcast,0,2012-12-21 12:09:00
7:53 AM,33.1,30.9,92,29.27,6.0,WSW,6.9,-,0.00,,Overcast,250,2012-12-21 12:53:00
8:00 AM,33.8,32.0,93,29.25,6.0,WSW,5.8,-,N/A,,Overcast,240,2012-12-21 13:00:00
8:10 AM,33.8,32.0,93,29.24,5.0,West,5.8,-,0.00,Rain,Light Rain,260,2012-12-21 13:10:00
8:34 AM,35.6,32.0,87,29.23,7.0,SW,8.1,-,0.00,Rain,Light Rain,230,2012-12-21 13:34:00
8:53 AM,35.1,32.0,89,29.26,6.0,WSW,10.4,-,0.00,Rain,Light Rain,240,2012-12-21 13:53:00
9:12 AM,35.6,32.0,87,29.24,10.0,WSW,8.1,-,0.00,Rain,Light Freezing Rain,240,2012-12-21 14:12:00
9:35 AM,35.6,32.0,87,29.23,9.0,WSW,9.2,-,0.00,Snow,Light Snow,250,2012-12-21 14:35:00
9:53 AM,35.1,32.0,89,29.25,9.0,West,8.1,-,0.00,Snow,Light Snow,260,2012-12-21 14:53:00
10:36 AM,35.6,32.0,87,29.22,3.0,SW,8.1,-,0.00,Snow,Light Snow,230,2012-12-21 15:36:00
10:53 AM,35.1,32.0,89,29.24,3.0,WSW,8.1,-,0.00,Snow,Light Snow,240,2012-12-21 15:53:00
11:08 AM,35.6,30.2,81,29.21,7.0,WSW,11.5,-,0.00,Snow,Light Snow,250,2012-12-21 16:08:00
11:37 AM,35.6,28.4,75,29.20,5.0,WSW,13.8,20.7,0.00,Snow,Light Snow,250,2012-12-21 16:37:00
11:53 AM,35.1,28.0,76,29.21,9.0,WSW,13.8,-,0.00,Snow,Light Snow,250,2012-12-21 16:53:00
12:53 PM,35.1,27.0,72,29.20,10.0,WSW,15.0,21.9,0.00,,Overcast,250,2012-12-21 17:53:00
1:53 PM,35.1,28.0,76,29.19,9.0,WSW,10.4,-,0.00,,Overcast,250,2012-12-21 18:53:00
2:25 PM,35.6,28.4,75,29.18,8.0,WSW,13.8,-,0.00,Snow,Light Snow,240,2012-12-21 19:25:00
2:53 PM,34.0,28.0,79,29.21,3.0,West,9.2,18.4,0.00,Snow,Light Snow,260,2012-12-21 19:53:00
3:05 PM,33.8,28.4,81,29.19,4.0,WSW,11.5,-,0.00,Snow,Light Snow,250,2012-12-21 20:05:00
3:16 PM,33.8,28.4,81,29.19,4.0,WSW,10.4,-,0.00,Snow,Light Snow,250,2012-12-21 20:16:00
3:53 PM,34.0,28.9,82,29.22,4.0,WSW,8.1,-,0.00,Snow,Light Snow,250,2012-12-21 20:53:00
4:41 PM,33.8,28.4,81,29.21,2.0,WSW,3.5,-,0.00,Snow,Light Snow,240,2012-12-21 21:41:00
4:53 PM,33.1,30.0,89,29.24,3.0,Variable,3.5,-,0.00,Snow,Light Snow,0,2012-12-21 21:53:00
5:45 PM,33.8,28.4,81,29.22,9.0,SW,5.8,-,0.01,Snow,Light Snow,220,2012-12-21 22:45:00
5:53 PM,33.1,28.9,85,29.25,9.0,SW,5.8,-,0.01,Snow,Light Snow,230,2012-12-21 22:53:00
6:18 PM,33.8,28.4,81,29.23,10.0,WSW,5.8,-,0.00,,Overcast,240,2012-12-21 23:18:00
6:53 PM,33.1,28.0,82,29.25,10.0,WSW,8.1,-,0.00,,Mostly Cloudy,240,2012-12-21 23:53:00
7:53 PM,34.0,28.0,79,29.25,10.0,WSW,13.8,-,N/A,,Overcast,240,2012-12-22 00:53:00
8:53 PM,34.0,28.0,79,29.25,10.0,WSW,10.4,-,N/A,,Overcast,240,2012-12-22 01:53:00
9:53 PM,34.0,30.0,85,29.26,4.0,WSW,10.4,-,0.00,Snow,Light Snow,240,2012-12-22 02:53:00
10:11 PM,33.8,30.2,87,29.24,2.5,WSW,10.4,-,0.00,Snow,Light Snow,250,2012-12-22 03:11:00
10:32 PM,33.8,30.2,87,29.25,3.0,WSW,10.4,-,0.00,Snow,Light Snow,250,2012-12-22 03:32:00
10:53 PM,34.0,28.9,82,29.29,2.0,West,17.3,25.3,0.00,Snow,Light Snow,280,2012-12-22 03:53:00
11:17 PM,33.8,28.4,81,29.27,3.0,West,12.7,-,0.00,Snow,Light Snow,270,2012-12-22 04:17:00
11:53 PM,34.0,26.1,73,29.31,8.0,West,19.6,32.2,0.00,Snow,Light Snow,280,2012-12-22 04:53:00